NEVŞEHİR ÇAT BALON UÇUŞ SAHASI 38 38 00 N O 34 49 OO E DTC

  • SEKTÖREL METEOROLOJİK DEĞERLENDİRME

  • ÇAT UÇULMAZ

Meteorolojik şartların belirlenen saat aralığında uçuş için uygun olmadığı değerlendirilmiştir.

  • GÜNCELLEME TARİHİ ve SAATİ :

  • 30.11.2022 - 05:57

  • GEÇERLİ TARİH ve SAATLER :

  • 30.11.2022 - 06:00 - 14:20

Büyük Harita İçin Tıklayınız

Sıcaklık
Basınç
Gün Doğum Saati
Gün Batım Saati
Bu bölümde yer alan bildirim meteorolojik veriler doğrultusunda ilgili gün ve zaman aralığında planlanan uçuşlara dair bağlayıcı niteliktedir. Kırmızı ve Sarı bayrak durumlarında kalkış uygunluğu verilmeyecektir. Yeşil bayrak durumunda nihai uçma kararı pilot ve işletme sorumluluğundadır
Kırmızı ve/veya sarı bayrağın ilan edildiği durumlarda yalnızca öğretmen pilot ile beraber yapılacak eğitim uçuşları (çift kumanda) için SHGM yetkilileri ile irtibata geçilerek eğitim uçuşları gerçekleştirilebilecektir.

METAR

LTAZ 300650Z 11005KT 0300 R11/0550N R29/0400U FG BKN001 03/03 Q1019

TAFF

TAF LTAZ 300440Z 3006/0106 VRB02KT 0500 FG BKN003 BECMG 3006/3008 2000 BR SCT035 SCT120 BECMG 3008/3009 4000 BECMG 3009/3011 9999 NSW BECMG 3017/3020 4200 BR NSC TEMPO 3022/3024 1000 BCFG SCT001

METAR - TAF bilgileri Aviation Weather Center'dan alınmaktadır.

AIRGRAM

Göreme Airgramı, Meteoroloji Genel Müdürlüğü'nden alınmaktadır.

Meteorolojik veriler sitede bilgilendirme amacıyla yer almaktadır.